User: anonymous   Login
Location: Stara Lesna
(49.1528°N, 20.2911°E)
Time: 10:20:52
(UTC+02:00)
Language:

Cosmos 1437 Rocket - Orbit

View from above orbital plane
View from above orbital plane
View from above satellite
View from above satellite

Ground track
Ground track

The orbit data is extracted from the following two-line orbital elements,

1 13771U 83003B   20265.88211799 +.00000311 +00000-0 +16933-4 0  9994
2 13771 081.1586 068.1886 0041737 009.3932 350.8064 15.10615112053800
Epoch (UTC): 21 September 2020 21:10:14
Eccentricity: 0.0041737
inclination: 81.1586°
perigee height: 505 km
apogee height: 563 km
right ascension of ascending node: 68.1886°
argument of perigee: 9.3932°
revolutions per day: 15.10615112
mean anomaly at epoch: 350.8064°
orbit number at epoch: 5380

The dashed part of the orbit path shows where the satellite is in the earth's shadow,  

DLR